This is the latest recevied weather packets stored in our database for station/object DG9LAO-6. If no packets are shown the sender has not sent any weather packets the latest 10 day(s).
| Time | Temp. | Humidity | Pressure | Rain* | Wind** | Luminosity | Snow |
|---|---|---|---|---|---|---|---|
| 1788134350 | 60° F | 92% | 756.7 mmHg | 0 in | - | - | - |
| 1788126553 | 60° F | 91% | 757.3 mmHg | 0 in | - | - | - |
| 1788117551 | 62° F | 91% | 757 mmHg | 0 in | - | - | - |
| 1788116951 | 63° F | 91% | 757 mmHg | 0 in | - | - | - |
| 1788114551 | 64° F | 90% | 757.1 mmHg | 0 in | - | - | - |
| 1788112756 | 64° F | 90% | 758.5 mmHg | 0 in | - | - | - |
| 1788112750 | 64° F | 90% | 756.8 mmHg | 0 in | - | - | - |
| 1788110355 | 65° F | 89% | 758.2 mmHg | 0 in | - | - | - |
| 1788110350 | 65° F | 89% | 756.7 mmHg | 0 in | - | - | - |
| 1788104949 | 67° F | 88% | 756.1 mmHg | 0 in | - | - | - |
| 1788097148 | 67° F | 89% | 754.9 mmHg | 0 in | - | - | - |
| 1788089350 | 68° F | 90% | 753.1 mmHg | 0 in | - | - | - |
| 1788088150 | 68° F | 90% | 752.8 mmHg | 0 in | - | - | - |
| 1788080955 | 65° F | 91% | 753 mmHg | 0.03 in | - | - | - |
| 1788080949 | 65° F | 91% | 751.5 mmHg | 0.03 in | - | - | - |
| 1788073754 | 65° F | 92% | 752.5 mmHg | 0.03 in | - | - | - |
| 1788073748 | 65° F | 91% | 750.8 mmHg | 0.03 in | - | - | - |
| 1788071351 | 64° F | 92% | 750.5 mmHg | 0.1 in | - | - | - |
| 1788056349 | 63° F | 92% | 752.2 mmHg | 0 in | - | - | - |
| 1788049752 | 62° F | 92% | 753.4 mmHg | 0.03 in | - | - | - |
| 1788046151 | 63° F | 92% | 753.7 mmHg | 0 in | - | - | - |
| 1788019151 | 69° F | 85% | 755.5 mmHg | 0 in | - | - | - |
| 1788017951 | 69° F | 86% | 755.9 mmHg | 0 in | - | - | - |
| 1788001748 | 67° F | 90% | 754.7 mmHg | 0 in | - | - | - |
| 1787998751 | 66° F | 91% | 754.5 mmHg | 0 in | - | - | - |
* Rain latest hour (hover to see other rain measurements)
** Current wind speed in m/s (hover to see current wind gust speed)